This is the latest recevied weather packets stored in our database for station/object NW0017. If no packets are shown the sender has not sent any weather packets the latest 1 day(s).
| Time | Temp. | Humidity | Pressure | Rain* | Wind** | Luminosity | Snow |
|---|---|---|---|---|---|---|---|
| 1778064536 | 30° C | 90% | 1004.3 hPa | 0 mm | 3.13 m/s, 56° | 43 W/m² | - |
| 1778064476 | 30° C | 89% | 1004.3 hPa | 0 mm | 3.58 m/s, 24° | 44 W/m² | - |
| 1778064416 | 30.56° C | 89% | 1004.3 hPa | 0 mm | 3.58 m/s, 70° | 46 W/m² | - |
| 1778064358 | 30.56° C | 89% | 1004.3 hPa | 0 mm | 3.58 m/s, 70° | 48 W/m² | - |
| 1778064296 | 30.56° C | 89% | 1004.3 hPa | 0 mm | 3.58 m/s, 81° | 51 W/m² | - |
| 1778064236 | 30.56° C | 89% | 1004.2 hPa | 0 mm | 4.02 m/s, 37° | 57 W/m² | - |
| 1778064176 | 30.56° C | 89% | 1004.2 hPa | 0 mm | 3.13 m/s, 61° | 67 W/m² | - |
| 1778064116 | 30.56° C | 89% | 1004.2 hPa | 0 mm | 2.68 m/s, 46° | 77 W/m² | - |
| 1778064056 | 30.56° C | 89% | 1004.1 hPa | 0 mm | 2.68 m/s, 82° | 80 W/m² | - |
| 1778063996 | 30.56° C | 89% | 1004.1 hPa | 0 mm | 2.68 m/s, 74° | 83 W/m² | - |
| 1778063936 | 30.56° C | 89% | 1004.1 hPa | 0 mm | 2.24 m/s, 68° | 82 W/m² | - |
| 1778063876 | 30.56° C | 89% | 1004.1 hPa | 0 mm | 2.68 m/s, 56° | 76 W/m² | - |
| 1778063816 | 30.56° C | 89% | 1004 hPa | 0 mm | 2.68 m/s, 48° | 80 W/m² | - |
| 1778063756 | 30.56° C | 89% | 1004 hPa | 0 mm | 2.68 m/s, 80° | 87 W/m² | - |
| 1778063696 | 30.56° C | 89% | 1004 hPa | 0 mm | 2.68 m/s, 23° | 79 W/m² | - |
| 1778063636 | 30.56° C | 89% | 1004 hPa | 0 mm | 4.02 m/s, 63° | 69 W/m² | - |
| 1778063576 | 30.56° C | 88% | 1003.9 hPa | 0 mm | 4.02 m/s, 38° | 66 W/m² | - |
| 1778063516 | 30.56° C | 88% | 1003.9 hPa | 0 mm | 2.68 m/s, 51° | 66 W/m² | - |
| 1778063456 | 30.56° C | 89% | 1003.9 hPa | 0 mm | 2.68 m/s, 40° | 68 W/m² | - |
| 1778063396 | 30.56° C | 89% | 1003.9 hPa | 0 mm | 2.68 m/s, 42° | 71 W/m² | - |
| 1778063336 | 30.56° C | 88% | 1003.9 hPa | 0 mm | 3.13 m/s, 65° | 76 W/m² | - |
| 1778063276 | 30.56° C | 88% | 1003.9 hPa | 0 mm | 3.58 m/s, 66° | 77 W/m² | - |
| 1778063216 | 30.56° C | 88% | 1003.9 hPa | 0 mm | 3.58 m/s, 51° | 75 W/m² | - |
| 1778063156 | 30.56° C | 88% | 1003.9 hPa | 0 mm | 3.13 m/s, 62° | 72 W/m² | - |
| 1778063096 | 30.56° C | 88% | 1004 hPa | 0 mm | 2.68 m/s, 55° | 70 W/m² | - |
* Rain latest hour (hover to see other rain measurements)
** Current wind speed in m/s (hover to see current wind gust speed)